[[{"header":{"parameterUnit":"m.s-1","parameterCategory":1,"la1":30.2991,"la2":30.254,"lo1":-89.0895,"lo2":-89.0444,"dy":0.0017,"dx":0.0017,"nx":28,"ny":28,"refTime":"2023-10-14T09:00:00:Z","depth":0,"parameterNumber":2,"parameterNumberName":"U-component_of_WINDS"},"data":[0,0,0,0,0,0,0,0,0,0,0,0,0,0,0,0,0,0,0,0,0,0,0,0,0,0,0,0,0,0,0,0,0,0,0,0,0,0,0,0,0,0,0,0,0,0,0,0,0,0,0,0,0,0,0,0,0,0,2.1205,2.1204,0,2.1185,2.1184,2.1184,2.1146,2.1145,2.1144,2.1144,2.1122,2.1122,2.1122,0,0,0,0,0,0,0,0,0,0,0,0,0,2.121,2.121,2.1205,2.1204,2.1204,2.1185,2.1184,2.1184,2.1146,2.1145,2.1144,2.1143,2.1122,2.1122,2.1122,0,0,0,0,0,0,0,0,0,0,0,0,0,2.1201,2.121,2.1205,2.1183,2.1181,2.1185,2.1184,2.1184,2.1146,2.1145,2.1144,2.1143,2.1122,2.1122,2.1122,2.1146,0,0,2.1123,2.1123,0,0,0,0,0,0,0,0,2.1201,2.1201,2.1186,2.1184,2.1182,2.1167,2.1178,2.1171,2.1146,2.1159,2.1144,2.1142,2.1138,2.1136,2.1135,2.1145,2.1144,2.1123,2.1123,2.1123,2.1123,0,0,0,0,0,0,0,2.1202,2.1201,2.1197,2.1186,2.1183,2.1174,2.1172,2.1177,2.1155,2.1158,2.1155,2.1153,2.1136,2.1135,2.1134,2.1143,2.1123,2.1123,2.1123,2.1123,2.1173,2.1174,0,0,0,0,0,0,2.1206,2.1202,2.1197,2.1196,2.1189,2.1175,2.1172,2.1173,2.1155,2.1151,2.1154,2.1152,2.1135,2.1134,2.1133,2.116,2.1123,2.1123,2.1123,2.1172,2.1173,2.1175,0,0,0,0,0,0,2.1206,2.1206,2.1198,2.1198,2.1197,2.1176,2.1177,2.1173,2.1172,2.1152,2.1148,2.1157,2.1134,2.1133,2.1143,2.1159,2.1123,2.1123,2.117,2.1172,2.1174,2.1214,0,0,0,0,0,0,2.1207,2.1206,2.1215,2.1199,2.1197,2.1208,2.1178,2.1173,2.1172,2.1168,2.1153,2.115,2.1133,2.1143,2.1144,2.1159,2.1123,2.1169,2.1171,2.1173,2.1211,2.1217,2.1222,0,0,0,0,0,2.1207,2.1226,2.1215,2.1215,2.1207,2.1209,2.1208,2.1189,2.1173,2.1182,2.117,2.115,2.1158,2.1145,2.1145,2.116,2.1168,2.117,2.1173,2.1209,2.1216,2.1222,0,0,0,0,0,0,2.1243,2.1223,2.1211,2.1226,2.122,2.1203,2.1212,2.1197,2.1194,2.1191,2.1167,2.1164,2.1178,2.117,2.1156,2.1183,2.116,2.1163,2.1187,2.1194,2.1199,2.12,2.1124,0,0,0,0,0,2.1253,2.1257,2.1239,2.1254,2.1252,2.1233,2.1233,2.1219,2.1212,2.1209,2.1197,2.119,2.1191,2.1192,2.1192,2.1211,2.1207,2.1222,2.1227,2.1232,2.1234,2.1245,2.1251,2.1184,2.1184,2.1184,0,0,2.1273,2.1263,2.1266,2.1261,2.1254,2.1259,2.1231,2.1236,2.124,2.1209,2.1218,2.121,2.1201,2.1216,2.1222,2.121,2.1252,2.1235,2.1239,2.1239,2.1248,2.1255,2.126,2.1185,2.1185,2.1185,0,0,2.1311,2.1304,2.1316,2.1311,2.1302,2.129,2.1293,2.1279,2.1273,2.1282,2.126,2.1264,2.1265,2.126,2.1258,2.1298,2.128,2.1299,2.1326,2.1337,2.1343,2.1347,2.1362,2.1368,2.1301,2.1302,2.1302,0,2.1337,2.1343,2.1324,2.1331,2.133,2.1305,2.1317,2.1313,2.1304,2.1304,2.1291,2.1294,2.1286,2.13,2.1311,2.131,2.1313,2.1299,2.1344,2.1348,2.1352,2.1366,2.1371,2.1304,2.1304,2.1303,2.1303,0,2.1375,2.138,2.1391,2.1384,2.1385,2.1394,2.1377,2.138,2.1367,2.1357,2.1367,2.1358,2.1356,2.1358,2.1345,2.1371,2.1364,2.1348,2.1324,2.1361,2.1374,2.1379,2.1307,2.1306,2.1306,2.1305,0,0,2.1433,2.1418,2.1422,2.142,2.141,2.1413,2.1423,2.1422,2.1425,2.1421,2.1428,2.1432,2.1418,2.1415,2.1402,2.1411,2.1445,2.1394,2.1393,2.1404,2.1474,2.1486,2.1492,2.1434,2.1435,2.1435,2.1475,0,2.1469,2.1484,2.1469,2.1488,2.1493,2.147,2.1478,2.1474,2.1465,2.1468,2.1458,2.1461,2.1442,2.1441,2.1449,2.1439,2.1459,2.1436,2.1441,2.1441,2.1443,2.1499,2.1511,2.1549,2.148,2.1481,2.1481,0,2.1512,2.1511,2.1531,2.1522,2.1523,2.1531,2.153,2.1533,2.1528,2.1521,2.152,2.1504,2.1514,2.1492,2.1505,2.149,2.1492,2.1487,2.1488,2.1487,2.1463,2.1499,2.156,2.1566,2.1489,2.1488,2.1487,0,2.1553,2.1557,2.1569,2.1568,2.1557,2.1564,2.1559,2.1553,2.1554,2.1553,2.1554,2.1554,2.1554,2.1555,2.1541,2.1526,2.1556,2.1533,2.1551,2.1551,2.1557,2.1556,2.1618,2.1559,2.1559,2.1559,2.1559,0,2.1594,2.1607,2.1588,2.1595,2.161,2.1593,2.1607,2.1601,2.1596,2.1602,2.1583,2.1589,2.157,2.1575,2.1563,2.1577,2.1577,2.1572,2.1568,2.1573,2.1574,2.1573,2.157,2.156,2.156,2.156,2.1559,0,2.1641,2.1629,2.1641,2.1631,2.1629,2.164,2.1631,2.1638,2.1629,2.1638,2.1639,2.1625,2.163,2.1616,2.1618,2.1611,2.163,2.1623,2.1632,2.163,2.1649,2.1647,2.1712,2.1719,2.1655,2.1656,2.1657,0,2.1668,2.1678,2.1669,2.1672,2.167,2.1675,2.1677,2.1661,2.1663,2.166,2.1667,2.1671,2.1673,2.1682,2.1672,2.1674,2.1666,2.1689,2.1666,2.1671,2.1667,2.1666,2.1667,2.1693,2.1694,2.1695,2.1695,0,2.1717,2.1711,2.1714,2.1716,2.1719,2.1719,2.1718,2.1722,2.1705,2.1709,2.1715,2.1716,2.172,2.1724,2.1724,2.172,2.1705,2.1703,2.1707,2.1711,2.1716,2.1714,2.1644,2.1701,2.17,2.17,2.17,2.1699,2.1754,2.1762,2.1758,2.1763,2.1761,2.1761,2.1768,2.1761,2.1765,2.1767,2.1758,2.1766,2.1762,2.1762,2.176,2.1766,2.1755,2.1761,2.1763,2.1764,2.1768,2.1717,2.1766,2.1765,2.1765,2.1765,2.1765,0,2.1802,2.1799,2.1804,2.1804,2.1808,2.1795,2.1794,2.1798,2.1806,2.1804,2.1807,2.1814,2.1818,2.181,2.1813,2.182,2.1813,2.1821,2.182,2.182,2.1777,2.1773,2.1827,2.1827,2.1827,2.1827,2.1827,2.1827,2.1827,2.1841,2.1835,2.1848,2.1845,2.1853,2.1853,2.1854,2.1853,2.1862,2.1866,2.1861,2.1857,2.186,2.1864,2.1861,2.1863,2.1874,2.1869,2.1829,2.1823,2.1817,2.1813,2.1875,2.1875,2.1912,2.1912,2.1912]},{"header":{"parameterUnit":"m.s-1","parameterCategory":1,"la1":30.2991,"la2":30.254,"lo1":-89.0895,"lo2":-89.0444,"dy":0.0017,"dx":0.0017,"nx":28,"ny":28,"refTime":"2023-10-14T09:00:00:Z","depth":0,"parameterNumber":3,"parameterNumberName":"V-component_of_WINDS"},"data":[0,0,0,0,0,0,0,0,0,0,0,0,0,0,0,0,0,0,0,0,0,0,0,0,0,0,0,0,0,0,0,0,0,0,0,0,0,0,0,0,0,0,0,0,0,0,0,0,0,0,0,0,0,0,0,0,0,0,-8.9492,-8.9494,0,-8.9677,-8.9679,-8.9681,-8.9613,-8.9609,-8.9605,-8.9601,-8.9784,-8.9792,-8.9801,0,0,0,0,0,0,0,0,0,0,0,0,0,-8.9072,-8.908,-8.9491,-8.9494,-8.9496,-8.9677,-8.9679,-8.9682,-8.9614,-8.9609,-8.9604,-8.9599,-8.9781,-8.9791,-8.9802,0,0,0,0,0,0,0,0,0,0,0,0,0,-8.9256,-8.9083,-8.9491,-8.9484,-8.9485,-8.9676,-8.9679,-8.9683,-8.9615,-8.9609,-8.9602,-8.9596,-8.9777,-8.979,-8.9803,-9.001,0,0,-8.9843,-8.9849,0,0,0,0,0,0,0,0,-8.9245,-8.9271,-8.9483,-8.9485,-8.9487,-8.9616,-8.9598,-8.9792,-8.9616,-8.9566,-8.9601,-8.9593,-8.9732,-8.9749,-8.9797,-9.0018,-9.0026,-8.9844,-8.9852,-8.9858,-8.9862,0,0,0,0,0,0,0,-8.9233,-8.9263,-8.9565,-8.9486,-8.9488,-8.947,-8.9489,-8.9635,-8.9681,-8.9569,-8.9565,-8.9588,-8.9732,-8.9785,-8.9801,-9.0029,-8.9844,-8.9856,-8.9864,-8.9869,-9.0429,-9.0435,0,0,0,0,0,0,-8.922,-8.9252,-8.9559,-8.957,-8.9348,-8.9482,-8.9504,-8.9581,-8.968,-8.9689,-8.9593,-8.9584,-8.9765,-8.9786,-8.9807,-9.0056,-8.9858,-8.987,-8.9878,-9.0422,-9.043,-9.0438,0,0,0,0,0,0,-8.9211,-8.9248,-8.9551,-8.941,-8.9448,-8.9496,-8.9583,-8.9587,-8.964,-8.9698,-8.9705,-8.9639,-8.9761,-8.9788,-8.996,-9.0061,-8.9876,-8.9888,-9.0414,-9.0424,-9.0434,-9.0556,0,0,0,0,0,0,-8.92,-8.9245,-8.9326,-8.9413,-8.9455,-8.9704,-8.9589,-8.9596,-8.9664,-8.9654,-8.9743,-8.9751,-8.9758,-8.9941,-8.9974,-9.0076,-8.9898,-9.0405,-9.0418,-9.0431,-9.0543,-9.0569,-9.0591,0,0,0,0,0,-8.9185,-8.9351,-8.933,-8.9367,-8.9557,-8.971,-8.9734,-8.9741,-8.9672,-8.9753,-8.979,-8.9748,-9.0045,-8.9959,-8.9995,-9.0103,-9.0398,-9.0415,-9.043,-9.0532,-9.0564,-9.0591,0,0,0,0,0,0,-8.9271,-8.9362,-8.934,-8.954,-8.9618,-8.9698,-8.98,-8.9774,-8.9872,-8.9858,-8.986,-8.988,-9.0058,-9.0097,-9.0,-9.0309,-9.0211,-9.0235,-9.0277,-9.0307,-9.0331,-9.0318,-8.9909,0,0,0,0,0,-8.9314,-8.9433,-8.9504,-8.9673,-8.9714,-8.9751,-8.9817,-8.9816,-8.9896,-8.9928,-8.9978,-9.0055,-9.0166,-9.0239,-9.0344,-9.0548,-9.0566,-9.064,-9.0664,-9.0684,-9.0704,-9.0816,-9.085,-9.049,-9.0489,-9.0489,0,0,-8.9403,-8.9467,-8.9541,-8.9693,-8.9753,-8.9874,-8.9779,-8.991,-9.0,-8.9947,-9.0114,-9.0153,-9.0239,-9.0429,-9.0515,-9.0467,-9.0808,-9.0704,-9.0719,-9.0729,-9.0835,-9.087,-9.09,-9.05,-9.0498,-9.0497,0,0,-8.9627,-8.9688,-8.9836,-8.9899,-8.9993,-9.0016,-9.0052,-9.0137,-9.0162,-9.0329,-9.0293,-9.0398,-9.0588,-9.0652,-9.0709,-9.0958,-9.0924,-9.0992,-9.1119,-9.1228,-9.1256,-9.1281,-9.137,-9.1402,-9.1012,-9.1013,-9.1013,0,-8.9725,-8.9908,-8.9914,-9.0051,-9.0118,-9.0079,-9.0228,-9.0288,-9.041,-9.0457,-9.0403,-9.0642,-9.0697,-9.0901,-9.0963,-9.101,-9.105,-9.0982,-9.1252,-9.1277,-9.1301,-9.1386,-9.1419,-9.102,-9.1019,-9.1019,-9.1018,0,-9.0024,-9.0151,-9.0259,-9.0382,-9.0461,-9.0603,-9.0629,-9.0708,-9.07,-9.0729,-9.09,-9.0965,-9.1083,-9.1131,-9.1123,-9.1335,-9.1302,-9.125,-9.1152,-9.1343,-9.1423,-9.1455,-9.1031,-9.1029,-9.1026,-9.1024,0,0,-9.0307,-9.0433,-9.0472,-9.0528,-9.0629,-9.0727,-9.0866,-9.0984,-9.1052,-9.1138,-9.1254,-9.1417,-9.137,-9.1435,-9.1434,-9.153,-9.1724,-9.1466,-9.1468,-9.1512,-9.1961,-9.2,-9.2037,-9.1701,-9.1708,-9.1713,-9.1953,0,-9.054,-9.0788,-9.0798,-9.1023,-9.1141,-9.1105,-9.1227,-9.1301,-9.1332,-9.1434,-9.1466,-9.1582,-9.1511,-9.155,-9.1643,-9.1681,-9.1814,-9.1663,-9.1808,-9.1813,-9.1789,-9.2079,-9.2121,-9.2345,-9.1985,-9.199,-9.1994,0,-9.0844,-9.0943,-9.1181,-9.1266,-9.1316,-9.1425,-9.1534,-9.1634,-9.1716,-9.1732,-9.1806,-9.1791,-9.1932,-9.183,-9.2023,-9.1921,-9.198,-9.2008,-9.2016,-9.203,-9.1915,-9.2101,-9.2416,-9.245,-9.2043,-9.2039,-9.2036,0,-9.1028,-9.1219,-9.1387,-9.1435,-9.1539,-9.1617,-9.1663,-9.174,-9.1811,-9.1905,-9.1951,-9.206,-9.212,-9.2203,-9.2218,-9.2142,-9.2412,-9.2311,-9.2428,-9.2428,-9.2486,-9.2482,-9.2816,-9.2525,-9.2524,-9.2524,-9.2523,0,-9.1286,-9.1433,-9.1471,-9.1574,-9.1737,-9.1747,-9.1907,-9.1947,-9.2017,-9.2125,-9.21,-9.2202,-9.2215,-9.2321,-9.2332,-9.2491,-9.2518,-9.2533,-9.2534,-9.2536,-9.2534,-9.2575,-9.256,-9.2533,-9.2531,-9.2529,-9.2527,0,-9.1519,-9.155,-9.1731,-9.1815,-9.184,-9.1956,-9.2027,-9.2125,-9.2153,-9.2291,-9.2324,-9.2368,-9.249,-9.2513,-9.2657,-9.2665,-9.2854,-9.2839,-9.2827,-9.2826,-9.2941,-9.293,-9.3313,-9.3364,-9.3039,-9.3042,-9.3045,0,-9.1682,-9.1795,-9.1893,-9.1965,-9.2016,-9.2133,-9.2206,-9.2219,-9.2295,-9.2399,-9.2484,-9.2605,-9.2702,-9.2899,-9.2942,-9.3052,-9.304,-9.3166,-9.3056,-9.3054,-9.3042,-9.3035,-9.3047,-9.3187,-9.3191,-9.3194,-9.3196,0,-9.1969,-9.198,-9.2087,-9.2201,-9.2289,-9.2378,-9.2462,-9.2522,-9.2546,-9.2633,-9.276,-9.2836,-9.2984,-9.3104,-9.3214,-9.3258,-9.3232,-9.3231,-9.3264,-9.3266,-9.3255,-9.3263,-9.2886,-9.3222,-9.3219,-9.3217,-9.3216,-9.3215,-9.2173,-9.2272,-9.2356,-9.2477,-9.2542,-9.2622,-9.2719,-9.276,-9.2867,-9.2991,-9.2991,-9.313,-9.3209,-9.3355,-9.3407,-9.3514,-9.3473,-9.3521,-9.3533,-9.3545,-9.3556,-9.3238,-9.3534,-9.3533,-9.3532,-9.3532,-9.3531,0,-9.2458,-9.2512,-9.2623,-9.2743,-9.2838,-9.2807,-9.2899,-9.2979,-9.3103,-9.318,-9.3278,-9.3423,-9.3539,-9.3592,-9.3706,-9.3782,-9.3772,-9.3811,-9.3806,-9.3817,-9.3585,-9.3546,-9.3817,-9.3817,-9.3817,-9.3817,-9.3817,-9.3817,-9.2619,-9.2785,-9.2805,-9.3003,-9.3054,-9.3192,-9.3248,-9.3321,-9.3383,-9.3548,-9.3645,-9.368,-9.3748,-9.3867,-9.3971,-9.3984,-9.4027,-9.4072,-9.4078,-9.3862,-9.3833,-9.3805,-9.3768,-9.4081,-9.4081,-9.4301,-9.4303,-9.4304]}]]